Regional Weather Roundup
Issued by NWS

Home | Current Version | Previous Version | Graphics & Text | Print | Product List | Glossary On
Versions: 1 2 3 4 5 6 7 8 9 10 11 12 13 14 15 16 17 18 19 20 21 22 23 24 25 26 27 28 29 30 31 32 33 34 35 36 37 38 39 40 41 42 43 44 45 46 47 48 49 50
332
ASUS43 KIND 060909
RWRIN

WEATHER ROUNDUP FOR INDIANA
NATIONAL WEATHER SERVICE INDIANAPOLIS IN
500 AM EDT FRI MAY 06 2016

NOTE: "FAIR" INDICATES FEW OR NO CLOUDS BELOW 12,000 FEET WITH NO
SIGNIFICANT WEATHER AND/OR OBSTRUCTIONS TO VISIBILITY.

* - STATION DOES NOT REPORT WEATHER SUCH AS PRECIPITATION OR FOG.

+ - STATION NOT QUALITY CONTROLLED BY THE NATIONAL WEATHER SERVICE.
    USE DATA WITH CAUTION...ESPECIALLY DEWPOINT AND RELATIVE
    HUMIDITY OBSERVATIONS.

INZ001>003-010>013-019-020-061000-
NORTHWEST INDIANA

CITY           SKY/WX    TMP DP  RH WIND       PRES   REMARKS
GARY /AIRPORT/ CLEAR     39  39 100 CALM      29.98S FOG
KNOX *+        CLEAR     37  36  93 CALM      29.97S
LA PORTE +     CLEAR    N/A N/A N/A CALM      29.97S
MICHIGAN CITY+ CLEAR     34  34 100 CALM      29.98S FOG
MONTICELLO +   CLEAR     39  36  88 W3        29.97S
RENSSELAER +   CLEAR     41  41 100 CALM      29.98S
VALPARAISO     CLEAR     39  37  92 CALM      29.98S

$$

LMZ046-743>745-061000-
SOUTHERN LAKE MICHIGAN

STATION/POSITION TIME  TEMP    WIND        PRES    WAVE
                       AIR SEA DIR/SP/G            HT
                 (UTC) (F)     (DEG/KT/KT) (MB)    (FT)
BURNS HARBOR     0801   44     190/  3/  5 1015.6F
MICHIGAN CITY    0800   42     130/  4/  4   N/A

$$

INZ004-005-014>016-021>024-061000-
NORTH CENTRAL INDIANA

CITY           SKY/WX    TMP DP  RH WIND       PRES   REMARKS
GOSHEN         CLEAR     40  36  86 W5        29.95S
LOGANSPORT +   CLEAR     39  37  93 CALM      29.97S
PERU/GRISSOM   CLEAR     41  40  93 W5        29.95R
ROCHESTER +    CLEAR     43  39  87 CALM      29.96S
SOUTH BEND     CLEAR     36  34  92 S3        29.97S
WARSAW +       CLEAR     37  37 100 W3        29.95F

$$

INZ006>009-017-018-025>027-061000-
NORTHEAST INDIANA

CITY           SKY/WX    TMP DP  RH WIND       PRES   REMARKS
ANGOLA *+        N/A     45  37  76 N3        29.94S
AUBURN +       CLEAR     45  36  70 NW3       29.95R
FORT WAYNE     CLEAR     46  37  71 NW7       29.94S
HUNTINGTON +   PTCLDY   N/A N/A N/A CALM      29.94S

$$

INZ028-029-035-036-043>045-051>053-061000-
WEST CENTRAL INDIANA

CITY           SKY/WX    TMP DP  RH WIND       PRES   REMARKS
CRAWFORDSVL +  CLEAR     41  41 100 CALM      29.98S
GREENCASTLE +  CLEAR     45  43  93 NW5       29.98F
LAFAYETTE      CLEAR     39  38  96 CALM      29.98F
TERRE HAUTE    CLEAR     45  41  86 CALM      29.99S

$$

INZ030>032-037>040-046>048-054>057-064-065-061000-
CENTRAL INDIANA

CITY           SKY/WX    TMP DP  RH WIND       PRES   REMARKS
CP ATTERBURY + PTCLDY    41  39  93 CALM      29.97S FOG
FISHERS *+     CLEAR     41  41 100 CALM      29.97R
FRANKFORT +      N/A     43  40  89 CALM      29.99S
INDIANAPOLIS   CLEAR     44  38  79 NW7       29.95S
-EAGLE CREEK   CLEAR     48  40  73 NW7       29.96S
KOKOMO *+      CLEAR     43  36  75 W7        29.96S
MARION +       PTCLDY    43  39  86 CALM      29.96S
SHELBYVILLE    CLEAR     46  41  82 NW6       29.95S
ZIONSVILLE +   CLEAR     43  39  86 NW6       29.97S

$$

INZ033-034-041-042-049-050-058-059-061000-
EAST CENTRAL INDIANA

CITY           SKY/WX    TMP DP  RH WIND       PRES   REMARKS
MUNCIE         CLEAR     45  40  82 NW3       29.94S

$$

INZ060-061-067>069-081>083-085>088-061000-
SOUTHWEST INDIANA

CITY           SKY/WX    TMP DP  RH WIND       PRES   REMARKS
EVANSVILLE     CLEAR     47  42  83 CALM      30.00S
HUNTINGBURG *+ CLEAR     46  39  76 NW5       29.99R
WASHINGTON +   CLEAR     48  45  87 NW5       29.98S

$$

INZ062-063-066-070>080-084-089>092-061000-
SOUTH CENTRAL AND SOUTHEAST INDIANA

CITY           SKY/WX    TMP DP  RH WIND       PRES   REMARKS
BEDFORD +      PTCLDY    45  45 100 CALM      29.96S
BLOOMINGTON    CLEAR     45  40  82 CALM      29.97S
MADISON *+     CLEAR     46  43  87 NW5       29.96S
NORTH VERNON + CLEAR    N/A N/A N/A CALM      29.96R
SEYMOUR +      CLEAR     45  41  87 CALM      29.96S

$$





USA.gov is the U.S. government's official web portal to all federal, state and local government web resources and services.